When you browse on this site, cookies collect data to enhance your experience and personalize the content and advertising you see.
Visit our Privacy Policy to learn more. By continuing to use the site, you agree to this use of cookies and data.
  • In Hungary
  • List of Countries
  • For 7 days
  • Water Temperature
  • Satellite Maps
  • Weather Map
  • News
  • Weather Widgets
  • user-avatar
    Login

    Hourly Weather Saint Albans

    Today, 19 December, Wednesday

    Time Temperature Precipitation Wind Pressure Humidity
    00:00 +5°C° 0 mm 3 mps 741 mmHg 93%
    01:00 +5°C° 0 mm 3 mps 741 mmHg 92%
    02:00 +5°C° 0 mm 4 mps 742 mmHg 91%
    03:00 +5°C° 0 mm 4 mps 742 mmHg 91%
    04:00 +6°C° 0.2 mm 5 mps 742 mmHg 90%
    05:00 +6°C° 0.2 mm 5 mps 742 mmHg 89%
    06:00 +6°C° 0.2 mm 5 mps 742 mmHg 89%
    07:00 +6°C° 0.2 mm 5 mps 742 mmHg 88%
    08:00 +6°C° 0.2 mm 5 mps 742 mmHg 86%
    09:00 +6°C° 0.2 mm 5 mps 742 mmHg 85%
    10:00 +7°C° 0 mm 5 mps 742 mmHg 82%
    11:00 +7°C° 0 mm 5 mps 742 mmHg 79%
    12:00 +8°C° 0 mm 5 mps 743 mmHg 76%
    13:00 +7°C° 0 mm 5 mps 743 mmHg 77%
    14:00 +7°C° 0 mm 4 mps 743 mmHg 78%
    15:00 +7°C° 0 mm 4 mps 743 mmHg 78%
    16:00 +6°C° 0 mm 4 mps 743 mmHg 80%
    17:00 +6°C° 0 mm 4 mps 743 mmHg 81%
    18:00 +5°C° 0 mm 5 mps 742 mmHg 83%
    19:00 +5°C° 0 mm 5 mps 742 mmHg 83%
    20:00 +5°C° 0 mm 5 mps 742 mmHg 83%
    21:00 +5°C° 0 mm 5 mps 742 mmHg 84%
    22:00 +5°C° 0.1 mm 5 mps 742 mmHg 84%
    23:00 +5°C° 0.1 mm 5 mps 742 mmHg 84%

    Tomorrow, 20 December, Thursday

    Time Temperature Precipitation Wind Pressure Humidity
    00:00 +5°C° 0.1 mm 5 mps 742 mmHg 85%
    01:00 +5°C° 0.1 mm 5 mps 742 mmHg 85%
    02:00 +5°C° 0.1 mm 5 mps 742 mmHg 85%
    03:00 +5°C° 0.1 mm 5 mps 742 mmHg 85%
    04:00 +5°C° 0 mm 5 mps 742 mmHg 85%
    05:00 +5°C° 0 mm 5 mps 743 mmHg 85%
    06:00 +5°C° 0 mm 5 mps 743 mmHg 86%
    07:00 +5°C° 0 mm 5 mps 743 mmHg 86%
    08:00 +5°C° 0 mm 5 mps 744 mmHg 86%
    09:00 +4°C° 0 mm 6 mps 744 mmHg 86%
    10:00 +5°C° 0.1 mm 6 mps 744 mmHg 83%
    11:00 +7°C° 0.1 mm 6 mps 744 mmHg 80%
    12:00 +6°C° 0.1 mm 7 mps 744 mmHg 76%
    13:00 +7°C° 0.3 mm 6 mps 744 mmHg 76%
    14:00 +7°C° 0.3 mm 6 mps 744 mmHg 77%
    15:00 +7°C° 0.3 mm 6 mps 744 mmHg 77%
    16:00 +7°C° 0.2 mm 6 mps 744 mmHg 78%
    17:00 +7°C° 0.2 mm 6 mps 744 mmHg 80%
    18:00 +5°C° 0.2 mm 6 mps 744 mmHg 81%
    19:00 +6°C° 0 mm 5 mps 744 mmHg 81%
    20:00 +6°C° 0 mm 5 mps 744 mmHg 82%
    21:00 +6°C° 0 mm 5 mps 744 mmHg 82%
    22:00 +6°C° 0.3 mm 4 mps 743 mmHg 85%
    23:00 +7°C° 0.3 mm 3 mps 742 mmHg 88%

    Day after tomorrow, 21 December, Friday

    Time Temperature Precipitation Wind Pressure Humidity
    00:00 +7°C° 0.3 mm 3 mps 742 mmHg 91%
    01:00 +8°C° 1.1 mm 3 mps 741 mmHg 92%
    02:00 +8°C° 1.1 mm 4 mps 739 mmHg 94%
    03:00 +8°C° 1.1 mm 5 mps 738 mmHg 95%
    04:00 +9°C° 0.4 mm 6 mps 738 mmHg 94%
    05:00 +10°C° 0.4 mm 7 mps 737 mmHg 92%
    06:00 +11°C° 0.4 mm 7 mps 737 mmHg 91%
    07:00 +10°C° 0.1 mm 8 mps 737 mmHg 86%
    08:00 +9°C° 0.1 mm 8 mps 738 mmHg 81%
    09:00 +8°C° 0.1 mm 9 mps 738 mmHg 76%
    10:00 +7°C° 0 mm 9 mps 739 mmHg 75%
    11:00 +7°C° 0 mm 9 mps 740 mmHg 73%
    12:00 +7°C° 0 mm 9 mps 741 mmHg 72%
    13:00 +7°C° 0 mm 8 mps 741 mmHg 72%
    14:00 +7°C° 0 mm 8 mps 742 mmHg 72%
    15:00 +8°C° 0 mm 7 mps 742 mmHg 72%
    16:00 +8°C° 0 mm 7 mps 742 mmHg 74%
    17:00 +7°C° 0 mm 6 mps 743 mmHg 77%
    18:00 +7°C° 0 mm 6 mps 743 mmHg 79%
    19:00 +7°C° 0.4 mm 6 mps 743 mmHg 81%
    20:00 +7°C° 0.4 mm 6 mps 743 mmHg 84%
    21:00 +7°C° 0.4 mm 6 mps 743 mmHg 86%
    22:00 +8°C° 0.4 mm 7 mps 743 mmHg 85%
    23:00 +8°C° 0.4 mm 7 mps 742 mmHg 84%

    22 December, Saturday

    Time Temperature Precipitation Wind Pressure Humidity
    00:00 +9°C° 0.4 mm 8 mps 742 mmHg 83%
    01:00 +7°C° 0.1 mm 8 mps 743 mmHg 81%
    02:00 +6°C° 0.1 mm 7 mps 744 mmHg 79%
    03:00 +6°C° 0.1 mm 7 mps 745 mmHg 78%
    04:00 +6°C° 0 mm 7 mps 746 mmHg 80%
    05:00 +5°C° 0 mm 6 mps 746 mmHg 82%
    06:00 +5°C° 0 mm 6 mps 747 mmHg 84%
    07:00 +5°C° 0 mm 6 mps 748 mmHg 84%
    08:00 +6°C° 0 mm 5 mps 748 mmHg 85%
    09:00 +6°C° 0 mm 5 mps 749 mmHg 86%
    10:00 +7°C° 0 mm 6 mps 749 mmHg 83%
    11:00 +7°C° 0 mm 6 mps 749 mmHg 80%
    12:00 +8°C° 0 mm 6 mps 750 mmHg 77%
    13:00 +8°C° 0 mm 6 mps 750 mmHg 78%
    14:00 +8°C° 0 mm 5 mps 750 mmHg 78%
    15:00 +7°C° 0 mm 5 mps 750 mmHg 79%
    16:00 +7°C° 0 mm 4 mps 751 mmHg 80%
    17:00 +6°C° 0 mm 4 mps 751 mmHg 82%
    18:00 +6°C° 0 mm 4 mps 752 mmHg 83%
    19:00 +6°C° 0 mm 4 mps 752 mmHg 84%
    20:00 +5°C° 0 mm 4 mps 753 mmHg 84%
    21:00 +5°C° 0 mm 4 mps 753 mmHg 85%
    22:00 +5°C° 0 mm 4 mps 754 mmHg 85%
    23:00 +5°C° 0 mm 4 mps 754 mmHg 85%

    23 December, Sunday

    Time Temperature Precipitation Wind Pressure Humidity
    00:00 +5°C° 0 mm 4 mps 754 mmHg 85%
    01:00 +5°C° 0 mm 4 mps 754 mmHg 86%
    02:00 +4°C° 0 mm 4 mps 755 mmHg 87%
    03:00 +4°C° 0 mm 4 mps 755 mmHg 88%
    04:00 +4°C° 0 mm 3 mps 755 mmHg 89%
    05:00 +4°C° 0 mm 3 mps 755 mmHg 90%
    06:00 +4°C° 0 mm 3 mps 755 mmHg 91%
    07:00 +4°C° 0 mm 3 mps 756 mmHg 91%
    08:00 +4°C° 0 mm 3 mps 756 mmHg 91%
    09:00 +3°C° 0 mm 3 mps 757 mmHg 91%
    10:00 +4°C° 0 mm 3 mps 757 mmHg 87%
    11:00 +5°C° 0 mm 3 mps 757 mmHg 83%
    12:00 +7°C° 0 mm 3 mps 757 mmHg 79%
    13:00 +7°C° 0 mm 3 mps 758 mmHg 81%
    14:00 +7°C° 0 mm 2 mps 758 mmHg 82%
    15:00 +6°C° 0 mm 2 mps 758 mmHg 83%
    16:00 +6°C° 0 mm 2 mps 758 mmHg 85%
    17:00 +6°C° 0 mm 2 mps 759 mmHg 87%
    18:00 +5°C° 0 mm 2 mps 759 mmHg 88%
    19:00 +6°C° 0 mm 1 mps 759 mmHg 88%
    20:00 +6°C° 0 mm 1 mps 760 mmHg 87%
    21:00 +6°C° 0 mm 1 mps 760 mmHg 87%
    22:00 +6°C° 0 mm 1 mps 761 mmHg 87%
    23:00 +6°C° 0 mm 1 mps 761 mmHg 86%

    24 December, Monday

    Time Temperature Precipitation Wind Pressure Humidity
    00:00 +5°C° 0 mm 1 mps 761 mmHg 86%
    01:00 +5°C° 0 mm 1 mps 761 mmHg 86%
    02:00 +5°C° 0 mm 1 mps 761 mmHg 86%
    03:00 +4°C° 0 mm 0 mps 762 mmHg 86%
    04:00 +5°C° 0 mm 1 mps 762 mmHg 86%
    05:00 +5°C° 0 mm 1 mps 762 mmHg 85%
    06:00 +5°C° 0 mm 1 mps 762 mmHg 85%
    07:00 +5°C° 0.2 mm 1 mps 762 mmHg 86%
    08:00 +5°C° 0.2 mm 1 mps 762 mmHg 86%
    09:00 +5°C° 0.2 mm 1 mps 762 mmHg 87%
    10:00 +5°C° 0.1 mm 2 mps 762 mmHg 86%
    11:00 +5°C° 0.1 mm 2 mps 762 mmHg 86%
    12:00 +5°C° 0.1 mm 2 mps 762 mmHg 86%
    13:00 +5°C° 0.3 mm 2 mps 762 mmHg 87%
    14:00 +6°C° 0.3 mm 2 mps 761 mmHg 89%
    15:00 +6°C° 0.3 mm 2 mps 761 mmHg 90%
    16:00 +5°C° 0.4 mm 3 mps 761 mmHg 92%
    17:00 +5°C° 0.4 mm 3 mps 760 mmHg 93%
    18:00 +5°C° 0.4 mm 3 mps 760 mmHg 94%
    19:00 +5°C° 0.1 mm 3 mps 760 mmHg 94%
    20:00 +7°C° 0.1 mm 3 mps 760 mmHg 95%
    21:00 +7°C° 0.1 mm 3 mps 760 mmHg 95%
    22:00 +7°C° 0 mm 3 mps 760 mmHg 95%
    23:00 +7°C° 0 mm 3 mps 760 mmHg 96%
    Show more